TimeCST,TemperatureF,Dew PointF,Humidity,Sea Level PressureIn,VisibilityMPH,Wind Direction,Wind SpeedMPH,Gust SpeedMPH,PrecipitationIn,Events,Conditions,WindDirDegrees,DateUTC
12:17 AM,35.6,33.8,93,30.14,5.0,North,9.2,-,N/A,,Overcast,10,2012-11-05 06:17:00
12:33 AM,35.6,33.8,93,30.14,3.0,NNE,6.9,-,N/A,,Overcast,20,2012-11-05 06:33:00
12:53 AM,35.1,34.0,96,30.20,5.0,North,9.2,-,N/A,,Overcast,10,2012-11-05 06:53:00
1:02 AM,35.6,33.8,93,30.15,8.0,North,9.2,-,N/A,,Overcast,360,2012-11-05 07:02:00
1:18 AM,35.6,33.8,93,30.15,7.0,North,9.2,-,N/A,,Overcast,360,2012-11-05 07:18:00
1:53 AM,35.1,33.1,92,30.21,5.0,North,10.4,-,N/A,,Overcast,360,2012-11-05 07:53:00
2:32 AM,33.8,33.8,100,30.15,2.0,North,9.2,-,N/A,,Overcast,10,2012-11-05 08:32:00
2:35 AM,33.8,33.8,100,30.15,1.8,North,9.2,-,N/A,,Overcast,10,2012-11-05 08:35:00
2:53 AM,34.0,33.1,96,30.21,3.0,North,9.2,-,N/A,,Overcast,10,2012-11-05 08:53:00
3:25 AM,33.8,32.0,93,30.16,4.0,North,11.5,-,N/A,,Overcast,10,2012-11-05 09:25:00
3:53 AM,34.0,32.0,92,30.22,5.0,North,9.2,-,N/A,,Overcast,10,2012-11-05 09:53:00
4:53 AM,34.0,32.0,92,30.23,4.0,North,8.1,-,N/A,,Overcast,350,2012-11-05 10:53:00
6:00 AM,33.8,32.0,93,30.16,2.5,NNE,8.1,-,N/A,,Overcast,30,2012-11-05 12:00:00
6:23 AM,33.8,32.0,93,30.16,4.0,NNE,8.1,-,N/A,,Overcast,20,2012-11-05 12:23:00
6:36 AM,33.8,32.0,93,30.15,5.0,North,8.1,-,N/A,,Overcast,360,2012-11-05 12:36:00
6:53 AM,33.1,30.9,92,30.21,5.0,North,6.9,-,N/A,,Overcast,360,2012-11-05 12:53:00
7:01 AM,32.0,30.2,93,30.15,5.0,NNW,6.9,-,N/A,,Overcast,340,2012-11-05 13:01:00
7:10 AM,32.0,30.2,93,30.15,5.0,NNW,5.8,-,N/A,,Overcast,340,2012-11-05 13:10:00
7:53 AM,33.1,30.9,92,30.22,4.0,North,6.9,-,N/A,,Overcast,350,2012-11-05 13:53:00
8:53 AM,34.0,32.0,92,30.22,5.0,North,8.1,-,N/A,,Overcast,350,2012-11-05 14:53:00
9:21 AM,35.6,32.0,87,30.17,9.0,NNW,8.1,-,N/A,,Overcast,340,2012-11-05 15:21:00
9:53 AM,36.0,32.0,86,30.22,10.0,NNW,8.1,-,N/A,,Overcast,330,2012-11-05 15:53:00
10:19 AM,37.4,33.8,87,30.16,10.0,Variable,4.6,-,N/A,,Overcast,0,2012-11-05 16:19:00
10:42 AM,37.4,32.0,81,30.15,10.0,North,5.8,-,N/A,,Overcast,350,2012-11-05 16:42:00
10:53 AM,37.0,32.0,82,30.21,10.0,NW,4.6,-,N/A,,Overcast,320,2012-11-05 16:53:00
11:53 AM,37.0,32.0,82,30.19,10.0,Calm,Calm,-,N/A,,Overcast,0,2012-11-05 17:53:00
12:18 PM,37.4,32.0,81,30.12,10.0,WNW,4.6,-,N/A,,Overcast,300,2012-11-05 18:18:00
12:53 PM,37.0,32.0,82,30.15,10.0,West,6.9,-,N/A,,Overcast,260,2012-11-05 18:53:00
1:53 PM,37.0,32.0,82,30.12,9.0,South,6.9,-,N/A,,Overcast,190,2012-11-05 19:53:00
2:24 PM,35.6,32.0,87,30.06,9.0,SW,9.2,-,N/A,,Overcast,220,2012-11-05 20:24:00
2:53 PM,35.1,30.9,85,30.12,9.0,SW,12.7,-,N/A,,Overcast,230,2012-11-05 20:53:00
3:53 PM,34.0,30.9,89,30.10,8.0,SW,9.2,-,N/A,,Overcast,220,2012-11-05 21:53:00
4:53 PM,35.1,30.9,85,30.07,10.0,SSW,10.4,-,N/A,,Overcast,210,2012-11-05 22:53:00
5:21 PM,35.6,30.2,81,30.01,10.0,South,8.1,-,N/A,,Overcast,190,2012-11-05 23:21:00
5:53 PM,35.1,30.9,85,30.06,10.0,SSW,15.0,-,N/A,,Overcast,210,2012-11-05 23:53:00
6:03 PM,35.6,30.2,81,30.01,10.0,SSW,15.0,-,N/A,,Overcast,210,2012-11-06 00:03:00
6:13 PM,35.6,32.0,87,30.00,10.0,SSW,12.7,-,N/A,,Overcast,200,2012-11-06 00:13:00
6:53 PM,35.1,30.9,85,30.03,10.0,South,11.5,-,N/A,,Overcast,190,2012-11-06 00:53:00
7:53 PM,35.1,32.0,89,29.98,9.0,South,15.0,-,N/A,,Overcast,180,2012-11-06 01:53:00
8:53 PM,35.1,33.1,92,29.94,7.0,South,13.8,21.9,0.00,,Overcast,180,2012-11-06 02:53:00
9:53 PM,36.0,34.0,93,29.91,8.0,South,15.0,23.0,N/A,,Overcast,190,2012-11-06 03:53:00
10:53 PM,37.0,34.0,89,29.88,10.0,SSW,17.3,23.0,N/A,,Overcast,200,2012-11-06 04:53:00
11:36 PM,37.4,33.8,87,29.81,10.0,SSW,15.0,25.3,N/A,,Overcast,200,2012-11-06 05:36:00
11:53 PM,37.0,34.0,89,29.85,10.0,SSW,13.8,23.0,N/A,,Overcast,200,2012-11-06 05:53:00